COSMOS 1275 DEB

Satellite information

Favourite Embed

Satellite Type and Status

DEBRISIN ORBIT

Key statistics

Satellite COSMOS 1275 DEB at a glance.

Uptime

16046

Days in orbit

Revolutions

≈ 14.1

Per day

Orbit

LEO

Low Earth Orbit

Inclination

83.2

Latest

Satellite identification and parameters

Extended collection of information and parameters for COSMOS 1275 DEB.

Object identification

Identified? True

Debris? True

Object name: COSMOS 1275 DEB

International designator: 1981-053PP

Object number (NORAD): 42103

Object ID (CCSDS): 42103

Country: COMMONWEALTH OF INDEPENDENT STATES (CIS)

Current information (Y/N): Y

RCS size: SMALL

Orbital parameters

Period: 101.831 minutes

Inclination: 83.1739 deg

SMA: 7223.495 km

Apoapsis: 867.435 km

Periapsis: 823.286 km

RAAN: 255.948 deg

Eccentricy: 0.0030559

Argument of periapsis: 201.2591 deg

Mean anomaly: 158.732 deg

Mean motion: 14.14105035 rev/day

Mean motion (dot): 0.00003381 rev/day2

B* drag term: 0.0017606 1/REarth

Two-line elements (TLE)

Creation date: May 4, 2025, 10:36 p.m.

Reference frame: TEME

Reference center: EARTH

Epoch: May 4, 2025, 3:16 p.m. UTC

TLE line 0: 0 COSMOS 1275 DEB

TLE line 1: 1 42103U 81053PP 25124.63641439 .00003381 00000-0 17606-2 0 9994

TLE line 2: 2 42103 83.1739 255.9480 0030559 201.2591 158.7320 14.14105035140205

Live tracking on map

Real-time ground track for satellite COSMOS 1275 DEB.

In-orbit conjunctions

A list of the most updated potential collisions computed for object COSMOS 1275 DEB.

Target Orbit TCA Probability of collision Miss distance Type
CZ-4B R/B SSO 2025-03-20 07:01:43 0.0001179949 207.0 (m) ROCKET BODY
COBE SSO 2024-09-05 13:24:07 0.003607137 109.0 (m) PAYLOAD

Associated space launch

Navigation satellite providing location information for the Tsiklon-B navigation system

COSMOS 1275 DEB was lifted into orbit during the mission ‘Kosmos-3M | Parus 27’, on board a Kosmos-3M space rocket.

The launch took place on June 4, 1981, 3:41 p.m. from 132/2.

For more information about the launch, click the button.

Launch to space Kosmos-3M | Parus 27
Kosmos-3M | Parus 27

Agency: N/A

Status: Launch Successful

Launch date: June 4, 1981, 3:41 p.m. UTC

Rocket: Kosmos-3M

Launch pad: 132/2

Location: Plesetsk Cosmodrome, Russian Federation

...

Latest news about this satellite

There are no fresh news available about this satellite. Check back as we update our databases every day.


Newsletter sign-up

Weekly statistics, charts and insights to help you stay on top of the space industry.